Date,TemperatureHighF,TemperatureAvgF,TemperatureLowF,DewpointHighF,DewpointAvgF,DewpointLowF,HumidityHigh,HumidityAvg,HumidityLow,PressureMaxIn,PressureMinIn,WindSpeedMaxMPH,WindSpeedAvgMPH,GustSpeedMaxMPH,PrecipitationSumIn
2013-3-1,65.0,49.3,37.0,28.0,17.8,12.0,51,30,18,30.41,30.26,4,0,0,0.00
2013-3-2,65.0,54.1,37.0,30.0,21.1,17.0,52,30,16,30.32,30.10,1,0,0,0.00
2013-3-3,56.0,49.4,40.0,35.0,25.9,19.0,74,42,27,30.10,29.90,10,1,0,0.00
2013-3-4,59.0,45.7,35.0,41.0,34.2,31.0,91,66,36,30.08,29.91,3,0,0,0.00
2013-3-5,55.0,46.6,39.0,43.0,37.4,33.0,97,72,47,30.07,29.90,14,4,0,0.01
2013-3-6,47.0,39.0,34.0,38.0,36.0,34.0,99,90,69,30.03,29.93,9,3,0,0.03
2013-3-7,37.0,35.1,33.0,36.0,34.6,32.0,99,98,95,29.96,29.84,7,2,0,0.62
2013-3-8,33.0,31.8,29.0,32.0,31.4,29.0,99,98,94,30.02,29.74,6,2,0,0.70
2013-3-9,45.0,36.4,31.0,36.0,31.7,28.0,99,84,53,30.28,30.02,2,0,0,0.00
2013-3-10,55.0,43.9,32.0,28.0,20.3,11.0,85,42,22,30.35,30.24,2,0,0,0.00
2013-3-12,71.0,55.8,36.0,34.0,23.2,16.0,56,31,16,30.15,30.07,5,0,0,0.00
2013-3-13,75.0,60.3,40.0,36.0,27.6,24.0,53,32,16,30.17,30.09,2,0,0,0.00
2013-3-14,76.0,62.7,44.0,40.0,31.4,26.0,53,34,16,30.12,30.03,6,1,0,0.00
2013-3-15,71.0,61.3,49.0,38.0,29.6,12.0,51,31,17,30.04,29.87,6,1,0,0.00
2013-3-16,71.0,57.6,44.0,29.0,23.5,8.0,42,28,17,29.89,29.81,10,1,0,0.00
2013-3-17,69.0,53.3,41.0,42.0,26.4,10.0,66,39,10,29.93,29.85,5,0,0,0.00
2013-3-18,66.0,52.7,39.0,35.0,24.5,14.0,72,36,20,30.00,29.90,3,0,0,0.00
2013-3-19,67.0,54.2,44.0,38.0,29.5,23.0,55,40,23,30.03,29.96,3,0,0,0.00
2013-3-20,60.0,52.3,44.0,43.0,37.2,33.0,71,57,44,30.02,29.91,5,1,0,0.00
2013-3-21,65.0,50.6,40.0,43.0,35.9,28.0,84,60,25,29.91,29.76,7,0,0,0.00
2013-3-22,64.0,46.7,35.0,40.0,23.4,2.0,88,47,11,29.92,29.75,2,0,0,0.00
2013-3-23,65.0,47.3,31.0,33.0,21.8,8.0,70,40,11,30.03,29.90,2,0,0,0.00
2013-3-24,66.0,50.4,36.0,27.0,20.9,12.0,60,35,17,30.01,29.91,1,0,0,0.00
2013-3-25,65.0,53.9,39.0,40.0,28.7,22.0,65,40,23,29.97,29.89,5,1,0,0.00
2013-3-26,61.0,53.3,47.0,40.0,30.6,21.0,77,44,24,29.91,29.82,8,1,0,0.00
2013-3-27,57.0,49.0,39.0,44.0,36.0,29.0,88,62,45,29.98,29.83,7,1,0,0.00
2013-3-28,61.0,50.7,40.0,45.0,38.1,34.0,85,64,38,30.04,29.95,9,1,0,0.00
2013-3-29,66.0,54.6,39.0,46.0,37.0,33.0,84,55,31,30.09,30.02,5,1,0,0.00
2013-3-30,64.0,54.6,45.0,42.0,34.7,21.0,72,48,29,30.04,29.95,9,1,0,0.00
2013-3-31,53.0,47.2,42.0,44.0,38.0,23.0,94,72,38,30.01,29.95,14,3,0,0.00